Find OneWeb SL0644

NORAD ID: 55808 Int'l Des: 2023-029 Owner: ONEWEBN Country: UK Constellation: oneweb operational
LEOCIRCULARPOLARONEWEB_TYPE

当前视图

正在加载3D地球...

About OneWeb SL0644

OneWeb SL0644 (NORAD 55808) is a oneweb constellation satellite launched Mar 9, 2023 by ONEWEBN of UK. It operates in LEO, CIRCULAR, POLAR, ONEWEB_TYPE orbit with a mass of 148.00 kg.

关于 OneWeb SL0644

正在加载描述...

即将过境

Passes for default location (London). Set your location on the main map for personalized predictions.

高度历史

Loading altitude history...

两行轨道根数

1 55808U 23029N 26169.91311816 .00000062 00000-0 12252-3 0 9999
2 55808 87.9170 304.6342 0001772 110.9983 249.1339 13.19724440159135
Epoch: Jun 18, 2026 • Age: 9 hours

当前状态

高度 1194.3 km
速度 7.26 km/s
星下点 55.85°N, 69.34°W
发射日期 Mar 9, 2023
运行时间 3.2 years
类型 internet

技术详情

分类 Payload
质量 148.00 kg
干质量 140.00 kg
总质量 148.00 kg
长度 1.30 m
直径 1.00 m
跨度 5.00 m
形状 Trapezoid+2 pan
制造商 ONEWUS
平台类型 ARROW
阶段状态 In Orbit
所有者/国家 ONEWEBN/UK

Most Searched